Regional Weather Roundup
Issued by NWS Sterling, VA

Home | Current Version | Previous Version | Text Only | Print | Product List | Glossary On
Versions: 1 2 3 4 5 6 7 8 9 10 11 12 13 14 15 16 17 18 19 20 21 22 23 24 25 26 27 28
000
ASUS41 KLWX 301210
RWRLWX

REGIONAL WEATHER ROUNDUP
NATIONAL WEATHER SERVICE BALTIMORE MD/WASHINGTON DC
800 AM EDT THU OCT 30 2014

Note: "FAIR" indicates few or no clouds below 12,000 feet
with no significant weather and/or obstructions to visibility.
 TC=TEMPERATURE CELSIUS

 * =Non NWS site. Station does not report precipitation (e.g. rain,
    snow, etc.), thunder, or fog.

DCZ001-MDZ009-015-VAZ040>042-051-053>054-301300-
WASHINGTON METRO

CITY           SKY/WX    TMP DP  RH WIND       PRES   REMARKS
WASHINGTON NAT PTCLDY    51  38  60 NW12      30.05R
DULLES         PTCLDY    40  38  93 CALM      30.06R
ANDREWS AFB    PTCLDY    47  40  75 NW8       30.03S
FT BELVOIR     CLEAR     44  42  93 NW3       30.05R
QUANTICO       PTCLDY    47  39  74 NW5       30.06R
COLLEGE PARK*  PTCLDY    43  43 100 CALM      30.04R
LEESBURG*      CLOUDY    45  41  87 NW7       30.06S
MANASSAS*      PTCLDY    36  36 100 CALM      30.06S
GAITHERSBURG*  CLOUDY    43  39  87 CALM      30.08R

$$

MDZ006>007-011-014-301300-
BALTIMORE METRO

CITY           SKY/WX    TMP DP  RH WIND       PRES   REMARKS
BWI AIRPORT    MOCLDY    44  41  89 W6        30.03R
MD SCIENCE CTR   N/A     50  39  66 MISG      30.03R
MARTIN STATE   MOCLDY    46  46 100 W8        30.05R
ANNAPOLIS      MOCLDY    49  42  77 W5        30.03R
FORT MEADE*    MOCLDY    37  37 100 NW3       30.06R

$$

MDZ012-015-019>023-301300-
MARYLAND EASTERN SHORE

CITY           SKY/WX    TMP DP  RH WIND       PRES   REMARKS
OCEAN CITY     PTCLDY    49  47  93 MISG      30.01R FOG
SALISBURY      PTCLDY    48  45  89 CALM      30.01R FOG
BAY BRIDGE AP*   N/A     50  45  81 NW3       30.03R
CAMBRIDGE*     CLEAR     45  43  93 CALM      30.01R
EASTON*        PTCLDY    45  45 100 CALM      30.05R

$$

MDZ017>025-301300-
SOUTHERN MARYLAND

CITY           SKY/WX    TMP DP  RH WIND       PRES   REMARKS
PATUXENT RIVER PTCLDY    50  45  83 NW8       30.03R
ST INIGOES     CLEAR     50  42  74 VRB5      30.02R
LEONARDTOWN*   CLEAR     45  41  87 CALM      30.04R

$$

MDZ003>005-301300-
NORTH CENTRAL MARYLAND

CITY           SKY/WX    TMP DP  RH WIND       PRES   REMARKS
FREDERICK*     CLEAR     46  41  81 CALM      30.08R
HAGERSTOWN APT CLEAR     43  34  70 CALM      30.05R
WESTMINSTER*   CLEAR     45  39  81 CALM      30.04R

$$

MDZ501>502-301300-
WESTERN MARYLAND

CITY           SKY/WX    TMP DP  RH WIND       PRES   REMARKS
OAKLAND*       CLOUDY    36 N/A N/A NW5       30.04S
CUMBERLAND*    CLOUDY    48  34  57 NW3       30.11S

$$

VAZ025>031-301300-
SHENANDOAH VALLEY

CITY           SKY/WX    TMP DP  RH WIND       PRES   REMARKS
WINCHESTER*    CLOUDY    45  34  65 CALM      30.06S
FRONT ROYAL*   CLOUDY    39  37  93 CALM      30.06R
LURAY*         CLOUDY    39  39 100 CALM      30.07R
NEW MARKET*    CLOUDY    33  33  99 CALM      30.07R
STAUNTON*      CLEAR     33  32  94 CALM      30.08S
WAYNESBORO*    FAIR      33  32  96 CALM      30.06R

$$

WVZ021-048>050-054>055-301300-
EASTERN WEST VIRGINIA PANHANDLE

CITY           SKY/WX    TMP DP  RH WIND       PRES   REMARKS
MARTINSBURG    MOCLDY    44  33  65 W3        30.07R
PETERSBURG*    CLOUDY    42  40  92 CALM      30.09R

$$

VAZ036>039-050-301300-
CENTRAL FOOTHILLS

CITY           SKY/WX    TMP DP  RH WIND       PRES   REMARKS
CHARLOTTESVILL CLEAR     42  40  92 CALM      30.05R
CULPEPER*      CLEAR     39  39 100 CALM      30.06R
ORANGE*        CLEAR     39  37  93 CALM      30.06S
GORDONSVILLE*  FAIR      37  36  99 CALM      30.05R
WARRENTON*     FAIR      36  36 100 CALM      30.05R FOG

$$

VAZ055>057-301300-
NORTH AND CENTRAL PIEDMONT

CITY           SKY/WX    TMP DP  RH WIND       PRES   REMARKS
FREDERICKSBRG* CLEAR     42  42 100 CALM      30.05R
STAFFORD*      CLEAR     41  41 100 NW8       30.09R

$$

NCZ024-NYZ072-PAZ021-071-VAZ022-071-301300-
OTHER REGIONAL OBSERVATIONS

CITY           SKY/WX    TMP DP  RH WIND       PRES   REMARKS
NEW YORK CITY  CLEAR     48  44  86 W3        30.01R
PHILADELPHIA   MOCLDY    47  42  83 NW8       30.01R
PITTSBURGH     PTCLDY    37  35  92 CALM      30.08R
ROANOKE        CLEAR     41  35  79 CALM      30.09R
RICHMOND       PTCLDY    50  48  93 N10       30.04R
RALEIGH        PTCLDY    48  46  93 CALM      30.04S

$$

ANZ530>537-301300-
MARINE OBSERVATIONS

STATION/POSITION TIME  TEMP    WIND        PRES
                       AIR SEA DIR/SP/G
                 (UTC) (F)     (DEG/KT/KT) (MB)
THOMAS PT LIGHT  1200   49 61  310/  9/ 10 1017.9R
BALT KEY BRIDGE  1200   51     290/ 13/ 15 1016.3R
COVE POINT       1200   54     350/ 18/ 20 1016.5R
LEWISETTA        1200   54 62  320/  9/ 11 1016.5R
SOLOMONS ISLAND  1200      63                N/A
PINEY POINT      1200          350/ 13/ 15   N/A

$$




USA.gov is the U.S. government's official web portal to all federal, state and local government web resources and services.